Regional Weather Roundup
Issued by NWS Green Bay, WI

Home | Current Version | Previous Version | Text Only | Print | Product List | Glossary On
Versions: 1 2 3 4 5 6 7 8 9 10 11 12 13 14 15 16 17 18 19 20 21 22 23 24 25 26 27 28 29 30 31 32 33 34 35 36 37 38 39 40 41 42 43 44 45 46 47 48 49 50
000
ASUS43 KGRB 160159
RWRGRB

NORTH-CENTRAL AND NORTHEAST WISCONSIN REGIONAL WEATHER ROUNDUP
NATIONAL WEATHER SERVICE GREEN BAY WI
900 PM CDT MON SEP 15 2014

WIZ005-009-010>012-018-019-160300-
NORTH CENTRAL WISCONSIN

CITY           SKY/WX    TMP DP  RH WIND       PRES   REMARKS
IRONWOOD       CLEAR     39  37  93 SW3       30.13S
MANITOWISH WTR NOT AVBL
ARBOR VITAE    NOT AVBL
EAGLE RIVER    NOT AVBL
LAND O LAKES   NOT AVBL
RHINELANDER    CLEAR     40  36  86 NW3       30.16S
PHILLIPS       NOT AVBL
ANTIGO         NOT AVBL
TOMAHAWK       NOT AVBL
MERRILL        NOT AVBL
$$

WIZ013-073-160300-
NORTHEAST WISCONSIN

CITY           SKY/WX    TMP DP  RH WIND       PRES   REMARKS
IRON MOUNTAIN  CLEAR     47  39  74 CALM      30.13R
MARINETTE      CLOUDY    52  46  82 NW3       30.11R
$$

WIZ017-030-035>037-045-160300-
CENTRAL WISCONSIN

CITY           SKY/WX    TMP DP  RH WIND       PRES   REMARKS
MEDFORD        NOT AVBL
WAUSAU         CLEAR     48  40  73 NW3       30.15R
MOSINEE        CLEAR     46  39  76 NW6       30.17R
MARSHFIELD     CLEAR     46  39  76 NW5       30.17R
WISC RAPIDS    CLEAR     48  42  80 W3        30.18R
STEVENS POINT  NOT AVBL
WAUPACA        NOT AVBL
SHAWANO        NOT AVBL
CLINTONVILLE   NOT AVBL
$$

WIZ038-039-048-051-160300-
FOX VALLEY

CITY           SKY/WX    TMP DP  RH WIND       PRES   REMARKS
NWS GREEN BAY  CLEAR     49  47  93 SW5       30.13R
APPLETON       PTCLDY    52  46  82 SW8       30.15R
OSHKOSH        CLEAR     52  47  83 W3        30.14S
FOND DU LAC    CLEAR     49  46  90 SW5       30.16R
$$

WIZ022-050-052-160300-
EAST CENTRAL WISCONSIN

CITY           SKY/WX    TMP DP  RH WIND       PRES   REMARKS
STURGEON BAY   MOCLDY    52  46  82 SW3       30.12S
MANITOWOC      NOT AVBL
SHEBOYGAN      CLEAR     46  45  96 SW5       30.15R
$$

LMZ563-521-522-541>543-160300-
LAKESHORE

STATION/POSITION TIME  TEMP    WIND        PRES    VSBY  WAVE
                       AIR SEA DIR/SP/G                  HT/PER
                 (UTC) (F)     (DEG/KT/KT) (MB)    (MI)  (FT/S)
SHEBOYGAN LKSHOR 0100   54 49  260/  4/  6 1020.8R
KEWAUNEE LKSHORE 0100   53     290/  3/  4 1019.0R
NORTHPORT PIER   0100   51     220/  3/  4 1019.3R
N MID LAKE BUOY  0100   56 59  260/  6/  6 1019.6R         1/ 5
S GREEN BAY BUOY 0100   60     VRB  4/  6  1020.6R
CHAMBERS ISLAND  0100   49     230/  2/  2 1019.3R
MENOMINEE LKSHOR 0100   56     240/  4/  5 1020.0R
$$



USA.gov is the U.S. government's official web portal to all federal, state and local government web resources and services.